• In Austria
  • List of Countries
  • For 7 days
  • Water Temperature
  • Satellite Maps
  • Weather Map
  • News
  • Weather Widgets
  • user-avatar
    Login

    Hourly Weather Malanje

    Today, 15 November, Thursday

    Time Temperature Precipitation Wind Pressure Humidity
    00:00 +20°C° 0.1 mm 1 mps 664 mmHg 95%
    01:00 +20°C° 0.1 mm 1 mps 664 mmHg 95%
    02:00 +19°C° 0.1 mm 2 mps 664 mmHg 96%
    03:00 +19°C° 0.1 mm 2 mps 664 mmHg 97%
    04:00 +19°C° 0.1 mm 2 mps 664 mmHg 98%
    05:00 +20°C° 0 mm 2 mps 665 mmHg 96%
    06:00 +20°C° 0 mm 2 mps 665 mmHg 94%
    07:00 +21°C° 0 mm 2 mps 665 mmHg 92%
    08:00 +24°C° 0 mm 3 mps 666 mmHg 84%
    09:00 +26°C° 0 mm 3 mps 666 mmHg 76%
    10:00 +27°C° 0 mm 3 mps 667 mmHg 68%
    11:00 +29°C° 0.1 mm 2 mps 666 mmHg 63%
    12:00 +30°C° 0.1 mm 2 mps 666 mmHg 58%
    13:00 +31°C° 0.1 mm 2 mps 666 mmHg 53%
    14:00 +30°C° 0.4 mm 2 mps 665 mmHg 56%
    15:00 +29°C° 0.4 mm 2 mps 664 mmHg 59%
    16:00 +29°C° 0.4 mm 2 mps 663 mmHg 62%
    17:00 +27°C° 0 mm 3 mps 663 mmHg 69%
    18:00 +25°C° 0 mm 3 mps 664 mmHg 76%
    19:00 +22°C° 0 mm 3 mps 664 mmHg 83%
    20:00 +21°C° 0 mm 3 mps 664 mmHg 86%
    21:00 +21°C° 0 mm 3 mps 664 mmHg 90%
    22:00 +20°C° 0 mm 3 mps 665 mmHg 93%
    23:00 +20°C° 0 mm 3 mps 665 mmHg 93%

    Tomorrow, 16 November, Friday

    Time Temperature Precipitation Wind Pressure Humidity
    00:00 +20°C° 0 mm 3 mps 665 mmHg 92%
    01:00 +20°C° 0 mm 3 mps 664 mmHg 92%
    02:00 +20°C° 0 mm 3 mps 664 mmHg 91%
    03:00 +20°C° 0 mm 3 mps 664 mmHg 91%
    04:00 +19°C° 0 mm 3 mps 664 mmHg 90%
    05:00 +20°C° 0 mm 3 mps 665 mmHg 89%
    06:00 +20°C° 0 mm 3 mps 665 mmHg 88%
    07:00 +20°C° 0 mm 3 mps 665 mmHg 87%
    08:00 +22°C° 0 mm 3 mps 666 mmHg 79%
    09:00 +25°C° 0 mm 3 mps 667 mmHg 71%
    10:00 +27°C° 0 mm 3 mps 667 mmHg 63%
    11:00 +28°C° 0 mm 3 mps 667 mmHg 59%
    12:00 +29°C° 0 mm 3 mps 666 mmHg 54%
    13:00 +31°C° 0 mm 2 mps 666 mmHg 50%
    14:00 +30°C° 0.1 mm 2 mps 665 mmHg 52%
    15:00 +30°C° 0.1 mm 2 mps 665 mmHg 55%
    16:00 +30°C° 0.1 mm 2 mps 664 mmHg 57%
    17:00 +27°C° 0.1 mm 2 mps 664 mmHg 66%
    18:00 +25°C° 0.1 mm 2 mps 664 mmHg 74%
    19:00 +23°C° 0.1 mm 1 mps 664 mmHg 83%
    20:00 +22°C° 0 mm 1 mps 665 mmHg 85%
    21:00 +21°C° 0 mm 2 mps 665 mmHg 87%
    22:00 +20°C° 0 mm 2 mps 666 mmHg 89%
    23:00 +21°C° 0 mm 1 mps 665 mmHg 91%

    Day after tomorrow, 17 November, Saturday

    Time Temperature Precipitation Wind Pressure Humidity
    00:00 +20°C° 0 mm 1 mps 665 mmHg 93%
    01:00 +20°C° 0 mm 1 mps 665 mmHg 95%
    02:00 +20°C° 0 mm 1 mps 665 mmHg 96%
    03:00 +20°C° 0 mm 1 mps 665 mmHg 96%
    04:00 +20°C° 0 mm 1 mps 665 mmHg 97%
    05:00 +21°C° 0 mm 1 mps 665 mmHg 94%
    06:00 +19°C° 0 mm 0 mps 666 mmHg 92%
    07:00 +20°C° 0 mm 0 mps 667 mmHg 89%
    08:00 +22°C° 0.1 mm 0 mps 667 mmHg 80%
    09:00 +27°C° 0.1 mm 1 mps 667 mmHg 71%
    10:00 +29°C° 0.1 mm 1 mps 668 mmHg 62%
    11:00 +29°C° 0.5 mm 1 mps 667 mmHg 61%
    12:00 +30°C° 0.5 mm 1 mps 666 mmHg 60%
    13:00 +30°C° 0.5 mm 1 mps 666 mmHg 59%
    14:00 +30°C° 0.4 mm 1 mps 665 mmHg 60%
    15:00 +29°C° 0.4 mm 1 mps 665 mmHg 61%
    16:00 +29°C° 0.4 mm 1 mps 664 mmHg 62%
    17:00 +27°C° 0.7 mm 1 mps 664 mmHg 71%
    18:00 +24°C° 0.7 mm 1 mps 664 mmHg 80%
    19:00 +22°C° 0.7 mm 1 mps 665 mmHg 89%
    20:00 +22°C° 0.1 mm 1 mps 665 mmHg 89%
    21:00 +21°C° 0.1 mm 1 mps 665 mmHg 89%
    22:00 +21°C° 0.1 mm 1 mps 666 mmHg 89%
    23:00 +21°C° 0 mm 1 mps 665 mmHg 92%

    18 November, Sunday

    Time Temperature Precipitation Wind Pressure Humidity
    00:00 +20°C° 0 mm 1 mps 665 mmHg 94%
    01:00 +19°C° 0 mm 2 mps 665 mmHg 96%
    02:00 +19°C° 0 mm 2 mps 665 mmHg 97%
    03:00 +19°C° 0 mm 2 mps 665 mmHg 97%
    04:00 +19°C° 0 mm 2 mps 664 mmHg 98%
    05:00 +20°C° 0 mm 2 mps 665 mmHg 96%
    06:00 +20°C° 0 mm 2 mps 666 mmHg 95%
    07:00 +20°C° 0 mm 2 mps 666 mmHg 93%
    08:00 +23°C° 0.1 mm 2 mps 666 mmHg 84%
    09:00 +25°C° 0.1 mm 2 mps 667 mmHg 76%
    10:00 +27°C° 0.1 mm 2 mps 667 mmHg 67%
    11:00 +28°C° 0.5 mm 1 mps 666 mmHg 65%
    12:00 +29°C° 0.5 mm 1 mps 666 mmHg 62%
    13:00 +30°C° 0.5 mm 1 mps 665 mmHg 60%
    14:00 +29°C° 1 mm 1 mps 664 mmHg 64%
    15:00 +29°C° 1 mm 1 mps 664 mmHg 67%
    16:00 +28°C° 1 mm 1 mps 663 mmHg 71%
    17:00 +26°C° 0.8 mm 1 mps 664 mmHg 76%
    18:00 +24°C° 0.8 mm 1 mps 664 mmHg 81%
    19:00 +22°C° 0.8 mm 1 mps 664 mmHg 87%
    20:00 +22°C° 0.5 mm 1 mps 665 mmHg 89%
    21:00 +21°C° 0.5 mm 1 mps 665 mmHg 91%
    22:00 +21°C° 0.5 mm 1 mps 665 mmHg 93%
    23:00 +20°C° 0.5 mm 1 mps 665 mmHg 94%

    19 November, Monday

    Time Temperature Precipitation Wind Pressure Humidity
    00:00 +20°C° 0.5 mm 1 mps 665 mmHg 96%
    01:00 +20°C° 0.5 mm 1 mps 665 mmHg 97%
    02:00 +19°C° 0.3 mm 2 mps 664 mmHg 98%
    03:00 +18°C° 0.3 mm 2 mps 664 mmHg 98%
    04:00 +18°C° 0.3 mm 2 mps 664 mmHg 98%
    05:00 +19°C° 0 mm 2 mps 665 mmHg 97%
    06:00 +19°C° 0 mm 2 mps 665 mmHg 96%
    07:00 +20°C° 0 mm 1 mps 666 mmHg 95%
    08:00 +23°C° 0.1 mm 1 mps 666 mmHg 85%
    09:00 +25°C° 0.1 mm 1 mps 667 mmHg 75%
    10:00 +28°C° 0.1 mm 1 mps 667 mmHg 65%
    11:00 +29°C° 0.3 mm 1 mps 666 mmHg 61%
    12:00 +30°C° 0.3 mm 1 mps 666 mmHg 57%
    13:00 +32°C° 0.3 mm 1 mps 665 mmHg 54%
    14:00 +31°C° 0.3 mm 1 mps 664 mmHg 56%
    15:00 +30°C° 0.3 mm 1 mps 664 mmHg 58%
    16:00 +30°C° 0.3 mm 1 mps 663 mmHg 60%
    17:00 +28°C° 0.2 mm 1 mps 664 mmHg 66%
    18:00 +26°C° 0.2 mm 1 mps 664 mmHg 73%
    19:00 +24°C° 0.2 mm 1 mps 664 mmHg 79%
    20:00 +23°C° 0.3 mm 1 mps 664 mmHg 83%
    21:00 +21°C° 0.3 mm 2 mps 664 mmHg 87%
    22:00 +20°C° 0.3 mm 2 mps 664 mmHg 90%
    23:00 +20°C° 0.3 mm 2 mps 664 mmHg 92%

    20 November, Tuesday

    Time Temperature Precipitation Wind Pressure Humidity
    00:00 +19°C° 0.3 mm 2 mps 664 mmHg 95%
    01:00 +19°C° 0.3 mm 2 mps 663 mmHg 97%
    02:00 +19°C° 0.4 mm 2 mps 663 mmHg 97%
    03:00 +18°C° 0.4 mm 2 mps 663 mmHg 98%
    04:00 +18°C° 0.4 mm 2 mps 663 mmHg 98%
    05:00 +19°C° 0.2 mm 2 mps 664 mmHg 97%
    06:00 +19°C° 0.2 mm 2 mps 665 mmHg 96%
    07:00 +19°C° 0.2 mm 2 mps 665 mmHg 95%
    08:00 +21°C° 0 mm 2 mps 665 mmHg 86%
    09:00 +25°C° 0 mm 2 mps 666 mmHg 77%
    10:00 +27°C° 0 mm 2 mps 666 mmHg 68%
    11:00 +28°C° 0.1 mm 2 mps 666 mmHg 63%
    12:00 +30°C° 0.1 mm 1 mps 665 mmHg 57%
    13:00 +32°C° 0.1 mm 1 mps 665 mmHg 52%
    14:00 +31°C° 0.3 mm 1 mps 664 mmHg 56%
    15:00 +30°C° 0.3 mm 1 mps 664 mmHg 60%
    16:00 +29°C° 0.3 mm 1 mps 663 mmHg 64%
    17:00 +27°C° 0.7 mm 1 mps 663 mmHg 72%
    18:00 +25°C° 0.7 mm 1 mps 663 mmHg 79%
    19:00 +23°C° 0.7 mm 1 mps 663 mmHg 87%
    20:00 +21°C° 0.8 mm 2 mps 664 mmHg 89%
    21:00 +21°C° 0.8 mm 2 mps 664 mmHg 92%
    22:00 +20°C° 0.8 mm 2 mps 665 mmHg 94%
    23:00 +20°C° 0.3 mm 2 mps 664 mmHg 95%
    Show more